Location: Champs
(48.8539°N, 2.6040°E)
Time: 18:11:41
(UTC+00:00)

Cosmos 2056 Rocket - Pass Details

Date: 05 June 2022
Orbit: 741 x 801 km, 74.0° (Epoch: 01 July)

Event Time Altitude Azimuth Distance (km) Brightness Sun altitude
Exits shadow 01:00:29 19° 156° (SSE) 1,753 4.9 -16.8°
Maximum altitude 01:03:33 36° 102° (ESE) 1,220 4.6 -16.7°
Drops below altitude 10° 01:08:22 10° 38° (NE) 2,349 7.2 -16.4°
Sets 01:10:56 0° 30° (NNE) 3,291 8.5 -16.3°
